Location: Tel Aviv
(32.0670°N, 34.7670°E)
Time: 12:59:35
(UTC+03:00)

Vanguard 2 - Pass Details

Date: 26 January 2022
Orbit: 552 x 2926 km, 32.9° (Epoch: 30 May)

Event Time Altitude Azimuth Distance (km) Brightness Sun altitude
Rises 01:30:23 0° 286° (WNW) 5,866 - -64.5°
Reaches altitude 10° 01:33:57 10° 282° (WNW) 5,105 - -63.8°
Maximum altitude 01:49:21 56° 210° (SSW) 3,275 - -60.8°
Exits shadow 01:59:44 29° 148° (SSE) 4,320 11.2 -58.7°
Drops below altitude 10° 02:06:13 10° 137° (SE) 5,516 12.0 -57.4°
Sets 02:10:17 0° 134° (SE) 6,344 12.4 -56.5°
